#timestamp,LO_Frequency,Hit,StdDev 
1575680415.8,286047082.6,N
1575680435.7,286047093.5,N
1575680455.5,286047098.8,N
1575680475.3,286047097.0,N
1575680495.2,286047095.3,N
1575680515.0,286047083.7,N
1575680515.9,286047083.7,N
1575680535.8,286047074.9,N
1575680555.6,286047076.3,N
1575680575.4,286047078.1,N
1575680595.3,286047078.2,Y
1575680615.1,286047021.8,P
1575680635.9,286047015.2,N
1575680655.7,286047008.5,N
1575680675.5,286047000.5,N
1575680695.4,286046995.1,N
1575680715.2,286046992.7,N
1575680735.0,286046992.1,N
1575680735.9,286046992.1,N
1575680755.8,286046991.4,N
1575680775.6,286046985.9,N
1575680795.5,286046980.6,N
1575680815.3,286046981.4,N
1575680835.1,286046979.6,N
1575680855.9,286046984.6,N
1575680875.7,286046994.0,N
1575680895.6,286046994.1,N
1575680915.4,286046991.9,N
1575680935.2,286046984.4,N
1575680955.1,286046976.8,N
1575680956.0,286046976.8,N
1575680975.8,286046968.0,N
1575680995.6,286046958.3,N
1575681015.5,286046950.2,N
1575681035.3,286046945.0,N
1575681055.2,286046942.5,N
1575681075.9,286046932.6,N
1575681095.7,286046929.6,N
1575681115.6,286046931.3,N
1575681135.4,286046940.4,N
1575681155.2,286046938.0,N
1575681175.1,286046935.9,N
1575681176.0,286046935.9,N
1575681195.8,286046943.4,N
1575681215.7,286046943.7,N
1575681235.5,286046949.3,N
1575681255.3,286046948.6,N
1575681275.2,286046957.9,N
1575681295.0,286046963.6,N
1575681295.9,286046963.6,N
1575681315.8,286046968.0,N
1575681335.6,286046971.7,N
1575681355.4,286046967.0,N
1575681375.3,286046963.3,N
1575681395.1,286046960.0,N
1575681415.9,286046958.8,N
1575681435.7,286046955.0,N
1575681455.5,286046951.0,Y
1575681475.7,286047002.7,P
1575681495.6,286047002.1,N
1575681515.4,286046998.7,N
1575681535.2,286047001.5,N
1575681555.1,286047001.6,N
1575681556.0,286047001.6,N
1575681575.8,286047003.2,N
1575681595.7,286046999.0,N
1575681615.5,286047000.3,N
1575681635.3,286047000.6,N
1575681655.2,286047001.0,N
1575681675.0,286047000.4,N
1575681675.9,286047000.4,N
1575681695.8,286046995.7,N
1575681715.6,286046994.3,N
1575681735.4,286046997.0,N
1575681755.3,286047003.1,N
1575681775.1,286047009.0,N
1575681795.8,286047007.7,N
1575681815.7,286047003.4,N
1575681835.5,286047004.0,N
1575681855.4,286047003.5,N
1575681875.2,286047009.0,N
1575681895.0,286047012.7,N
1575681895.9,286047012.7,N
1575681915.8,286047013.8,N
1575681935.6,286047012.8,N
1575681955.5,286047016.0,N
1575681975.3,286047017.5,N
1575681995.1,286047014.1,N
1575682015.9,286047019.9,Y
1575682035.7,286047012.6,P
1575682055.5,286047012.7,P
1575682075.4,286047012.5,P
1575682095.2,286047014.3,Y
1575682115.1,286047017.0,P
1575682116.0,286047017.0,P
1575682135.8,286047028.2,P
1575682155.6,286047036.2,Y
1575682175.5,286047017.3,P
1575682195.3,286047027.8,P
1575682215.2,286047023.9,P
1575682235.9,286047027.8,Y
1575682255.7,286047003.2,P
1575682275.6,286047003.5,N
1575682295.4,286047001.4,N
1575682315.3,286046996.9,N
1575682335.1,286046987.6,N
1575682336.0,286046987.6,N
1575682355.8,286046978.9,N
1575682375.7,286046977.8,N
1575682395.5,286046975.9,N
1575682415.3,286046980.4,N
1575682435.2,286046983.5,N
1575682455.0,286046993.0,N
1575682455.9,286046993.0,N
1575682475.8,286046994.4,N
1575682495.6,286046987.7,N
1575682515.4,286046985.3,N
1575682535.3,286046993.2,N
1575682555.1,286046989.3,N
1575682575.9,286046997.0,N
1575682595.7,286047008.2,N
1575682615.5,286047009.3,N
1575682635.4,286047011.1,N
1575682655.2,286047015.7,N
1575682675.1,286047013.6,N
1575682676.0,286047013.6,N
1575682695.8,286047009.9,N
1575682715.6,286047013.3,N
1575682735.5,286047024.3,N
1575682755.3,286047026.7,N
1575682775.1,286047019.3,N
1575682795.9,286047023.6,N
1575682815.7,286047028.8,N
1575682835.6,286047021.2,N
1575682855.4,286047016.6,N
1575682875.2,286047015.3,N
1575682895.1,286047008.5,N
1575682896.0,286047008.5,N
1575682915.8,286046998.7,N
1575682935.7,286046992.6,N
1575682955.5,286046983.4,N
1575682975.3,286046973.2,N
1575682995.2,286046966.7,N
1575683015.0,286046971.9,N
1575683015.9,286046971.9,N
1575683035.8,286046976.4,N
1575683055.6,286046964.7,N
1575683075.4,286046959.3,N
1575683095.3,286046956.5,N
1575683115.1,286046964.6,N
1575683135.8,286046960.6,N
1575683155.7,286046963.3,N
1575683175.5,286046974.2,N
1575683195.4,286046964.8,N
1575683215.2,286046966.9,N
1575683235.0,286046976.2,N
1575683235.9,286046976.2,N
1575683255.8,286046979.0,N
1575683275.6,286046975.0,N
1575683295.4,286046959.9,N
1575683315.3,286046959.2,N
1575683335.1,286046954.7,N
1575683355.9,286046942.1,N
1575683375.7,286046940.7,N
1575683395.5,286046935.1,Y
1575683415.4,286046963.4,P
1575683435.2,286046960.2,P
1575683455.1,286046953.4,P
1575683456.0,286046953.4,Y
1575683475.8,286046989.8,P
1575683495.6,286046981.7,N
1575683515.5,286046980.2,N
1575683535.3,286046980.1,N
1575683555.2,286046984.8,N
1575683575.9,286046986.6,N
1575683595.7,286046977.5,N
1575683615.6,286046968.1,Y
1575683635.4,286046982.6,P
1575683655.2,286046985.8,P
1575683675.1,286046978.9,P
1575683676.0,286046978.9,Y
1575683695.8,286047000.0,P
1575683715.7,286046997.1,N
1575683735.5,286046992.8,N
1575683755.3,286046988.0,N
1575683775.2,286046984.1,N
1575683795.0,286046984.9,N
1575683795.9,286046984.9,N
1575683815.8,286046978.6,Y
1575683835.6,286046991.1,P
1575683855.4,286046994.7,P
1575683875.3,286047006.5,N
1575683895.1,286047002.8,N
1575683915.8,286047004.3,N
1575683935.7,286047003.8,N
1575683955.5,286046997.8,N
1575683975.4,286046990.7,N
1575683995.2,286046985.5,N
